Location: Starlight Observatory
(38.4029°N, 85.8936°W)
Time: 10:07:14
(UTC-05:00)

Amateur Radio Satellites - All Passes

Search period start: 01 March 2015 09:37
Search period end: 02 March 2015 09:37
Location: Starlight Observatory, 38.4029°N, 85.8936°W

Satellite Date Start Highest point End Downlink Frequencies (MHz)
Time Altitude Azimuth
ANTELSAT 01 Mar 09:48:15 09:51:49 25° 70° (ENE) 09:55:26 437.575/2403.000
QB50P1 01 Mar 09:51:04 09:53:22 15° 67° (ENE) 09:55:51 145.935-145.965
DOVE 4 01 Mar 09:52:11 09:56:30 88° 102° (ESE) 10:00:39 437.250
QB50P2 01 Mar 09:54:00 09:56:34 16° 67° (ENE) 09:59:19 145.880/145.840
FUNcube-1 01 Mar 09:55:22 09:57:56 16° 92° (E) 10:00:38 145.935
ZACube-1 01 Mar 09:55:55 09:58:34 17° 92° (E) 10:01:22 437.345
SEEDS 01 Mar 09:59:17 10:03:29 63° 284° (WNW) 10:07:39 437.485
CANX-2 01 Mar 09:59:55 10:04:01 47° 286° (WNW) 10:08:06 2200.000
RS-15 01 Mar 10:06:37 10:17:58 66° 245° (WSW) 10:29:44 29.354- 29.394
UKube-1 01 Mar 10:06:49 10:10:03 21° 94° (E) 10:13:23 .
O/OREOS (USA 219) 01 Mar 10:07:06 10:11:38 75° 109° (ESE) 10:16:14 437.305
BUGSAT 1 01 Mar 10:09:39 10:12:27 18° 68° (ENE) 10:15:22 437.445
DUCHIFAT 1 01 Mar 10:09:44 10:13:05 23° 70° (ENE) 10:16:31 145.980
UWE-3 01 Mar 10:10:30 10:14:11 31° 96° (E) 10:17:54 435.000/436.395/437.385
CINEMA 3 01 Mar 10:12:31 10:16:43 77° 101° (ESE) 10:20:51 145.822/145.860
HUMSAT D 01 Mar 10:13:00 10:14:53 13° 90° (E) 10:16:59 437.325/437.525
SO-50 01 Mar 10:16:37 10:19:57 18° 43° (NE) 10:23:23 436.795
CUTE 1.7 + AOD 2 01 Mar 10:19:03 10:22:50 31° 288° (WNW) 10:26:35 437.475
HO-68 01 Mar 10:26:37 10:33:33 51° 291° (WNW) 10:40:25 435.675
POLYITAN 1 01 Mar 10:27:20 10:31:16 37° 72° (ENE) 10:35:16 437.675
50 SAT 01 Mar 10:27:26 10:29:10 13° 91° (E) 10:31:04 437.505
POPSAT HIP 1 01 Mar 10:28:41 10:32:38 38° 72° (ENE) 10:36:38 437.405
BRITE-PL 01 Mar 10:35:39 10:38:24 15° 295° (WNW) 10:40:54 437.365/2234.400
CUBEBUG 2 01 Mar 10:44:11 10:48:21 83° 283° (WNW) 10:52:30 437.445
UNISAT 6 01 Mar 10:45:21 10:49:48 74° 258° (WSW) 10:54:10 437.425
GOMX 1 01 Mar 10:48:43 10:51:27 16° 294° (WNW) 10:53:57 467.674
Oscar 11 01 Mar 10:49:04 10:53:17 52° 286° (WNW) 10:57:29 145.826/435.025
DELFI C3 01 Mar 10:50:54 10:54:56 60° 285° (WNW) 10:58:57 145.870
NANOSAT C BR1 01 Mar 10:52:11 10:56:27 72° 76° (ENE) 11:00:44 145.865
ISS 01 Mar 10:54:02 10:56:55 29° 329° (NNW) 10:59:48 145.825
GONETS M04 01 Mar 10:59:38 11:07:42 42° 272° (W) 11:15:39
AISAT 01 Mar 11:06:16 11:10:28 41° 98° (E) 11:14:40 437.250
AAUSAT CUBESAT 2 01 Mar 11:10:13 11:12:38 15° 293° (WNW) 11:14:55 437.432
DX 1 01 Mar 11:10:23 11:14:45 68° 285° (WNW) 11:19:03 434.975-435.025
TIGRISAT 01 Mar 11:11:38 11:15:48 37° 262° (W) 11:19:51 435.000
COMPASS 1 01 Mar 11:11:58 11:13:53 13° 294° (WNW) 11:15:37 437.405
CUBEBUG 1 01 Mar 11:16:03 11:19:26 22° 94° (E) 11:22:53 437.445
VELOX 1 01 Mar 11:16:29 11:20:51 52° 100° (E) 11:25:10 145.980
QB50P1 01 Mar 11:24:46 11:28:55 46° 261° (W) 11:33:03 145.935-145.965
ANTELSAT 01 Mar 11:24:48 11:28:35 26° 265° (W) 11:32:15 437.575/2403.000
ESTCUBE 1 01 Mar 11:26:07 11:30:11 32° 96° (E) 11:34:17 437.505/2401.250
QB50P2 01 Mar 11:28:07 11:32:12 41° 262° (W) 11:36:17 145.880/145.840
FUNcube-1 01 Mar 11:30:39 11:34:28 35° 288° (WNW) 11:38:15 145.935
ZACube-1 01 Mar 11:31:20 11:35:07 34° 288° (WNW) 11:38:52 437.345
CUSAT 1 01 Mar 11:39:29 11:42:01 44° 79° (E) 11:44:34 437.405
UKube-1 01 Mar 11:42:25 11:46:17 31° 289° (WNW) 11:50:05 .
BUGSAT 1 01 Mar 11:43:41 11:47:40 38° 262° (W) 11:51:40 437.445
DUCHIFAT 1 01 Mar 11:45:06 11:48:49 28° 264° (W) 11:52:30 145.980
HUMSAT D 01 Mar 11:47:03 11:50:58 43° 286° (WNW) 11:54:52 437.325/437.525
UWE-3 01 Mar 11:47:33 11:50:35 19° 291° (WNW) 11:53:30 435.000/436.395/437.385
O/OREOS (USA 219) 01 Mar 11:50:02 11:51:43 12° 308° (NW) 11:53:12 437.305
SPROUT 01 Mar 11:55:26 11:57:38 14° 90° (E) 12:00:01 437.525
SO-50 01 Mar 11:56:06 12:01:01 67° 241° (WSW) 12:05:52 436.795
50 SAT 01 Mar 12:00:42 12:04:26 41° 287° (WNW) 12:08:09 437.505
POLYITAN 1 01 Mar 12:04:28 12:07:24 17° 268° (W) 12:10:09 437.675
TISAT 1 01 Mar 12:04:46 12:07:17 16° 91° (E) 12:10:00 437.305
POPSAT HIP 1 01 Mar 12:05:51 12:08:43 17° 268° (W) 12:11:27 437.405
RS-15 01 Mar 12:24:28 12:28:46 12° 261° (W) 12:31:47 29.354- 29.394
Oscar 19 01 Mar 12:30:03 12:34:08 25° 68° (ENE) 12:38:19 437.125/150
AISAT 01 Mar 12:43:49 12:46:48 17° 293° (WNW) 12:49:38 437.250
DANDE 01 Mar 12:44:05 12:45:59 17° 267° (W) 12:47:48 436.750
CUBEBUG 1 01 Mar 12:51:57 12:55:52 30° 289° (WNW) 12:59:40 437.445
VELOX 1 01 Mar 12:54:36 12:57:01 14° 295° (WNW) 12:59:14 145.980
ESTCUBE 1 01 Mar 13:03:18 13:06:55 23° 291° (WNW) 13:10:26 437.505/2401.250
ITUPSAT 1 01 Mar 13:10:50 13:13:03 13° 90° (E) 13:15:31 437.325
Gurwin Techsat 1B 01 Mar 13:27:54 13:31:53 23° 67° (ENE) 13:36:01 435.225
SPROUT 01 Mar 13:29:55 13:34:02 44° 286° (WNW) 13:38:05 437.525
TISAT 1 01 Mar 13:39:23 13:43:20 38° 288° (WNW) 13:47:12 437.305
ITAMSAT 1 01 Mar 14:03:00 14:08:09 65° 74° (ENE) 14:13:22 435.822/435.867
Oscar 19 01 Mar 14:08:35 14:13:20 37° 263° (W) 14:18:04 437.125/150
SWISSCUBE 01 Mar 14:11:15 14:16:03 67° 102° (ESE) 14:20:49 437.505
HORYU 2 01 Mar 14:19:53 14:22:31 16° 67° (ENE) 14:25:20 437.375
BEESAT 01 Mar 14:20:09 14:24:58 76° 102° (ESE) 14:29:46 436.000
AO-7 01 Mar 14:34:00 14:40:39 29° 59° (ENE) 14:47:31 29.400- 29.500
ITUPSAT 1 01 Mar 14:46:39 14:51:25 59° 286° (WNW) 14:56:08 437.325
KKS-1 01 Mar 14:55:20 14:59:19 32° 97° (E) 15:03:18 437.445
STARS 01 Mar 15:05:14 15:08:54 26° 95° (E) 15:12:37 437.465
Gurwin Techsat 1B 01 Mar 15:06:33 15:11:37 43° 262° (W) 15:16:40 435.225
JAS-2 01 Mar 15:21:11 15:25:20 23° 64° (ENE) 15:29:58 435.910
ITAMSAT 1 01 Mar 15:45:27 15:48:13 14° 271° (W) 15:50:42 435.822/435.867
ISS 01 Mar 15:46:30 15:49:13 24° 28° (NNE) 15:51:58 145.825
SWISSCUBE 01 Mar 15:51:05 15:53:25 13° 296° (WNW) 15:55:31 437.505
YUBILEINY 01 Mar 15:54:09 16:01:29 33° 86° (E) 16:09:07 435.215
HORYU 2 01 Mar 15:54:37 15:58:53 44° 261° (W) 16:03:08 437.375
BEESAT 01 Mar 16:00:31 16:02:16 12° 297° (WNW) 16:03:44 436.000
M-CUBED/EXP-1 PRIME 01 Mar 16:06:50 16:08:19 12° 96° (E) 16:10:07 437.505
AUBIESAT-1 01 Mar 16:10:10 16:11:29 11° 96° (E) 16:13:05 437.475
AO-7 01 Mar 16:24:40 16:32:57 65° 257° (WSW) 16:41:14 29.400- 29.500
KKS-1 01 Mar 16:32:22 16:35:48 22° 292° (WNW) 16:39:06 437.445
STARS 01 Mar 16:41:41 16:45:20 25° 291° (WNW) 16:48:53 437.465
JAS-2 01 Mar 17:04:58 17:10:07 45° 263° (W) 17:15:46 435.910
Cubesat XI-IV 01 Mar 17:20:14 17:24:40 28° 67° (ENE) 17:29:13 437.490
ISS 01 Mar 17:22:42 17:25:43 36° 225° (SW) 17:28:44 145.825
CUTE-I 01 Mar 17:29:18 17:33:59 33° 69° (ENE) 17:38:48 437.470
MOZHAYETS 4 01 Mar 17:33:03 17:37:42 82° 103° (ESE) 17:42:21
M-CUBED/EXP-1 PRIME 01 Mar 17:39:21 17:43:32 61° 290° (WNW) 17:48:02 437.505
AUBIESAT-1 01 Mar 17:42:27 17:46:39 64° 289° (WNW) 17:51:09 437.475
YUBILEINY 01 Mar 17:49:37 17:58:03 50° 284° (WNW) 18:06:30 435.215
BEESAT 3 01 Mar 17:54:11 17:58:12 61° 118° (ESE) 18:02:18 437.485
AIST 2 01 Mar 18:09:02 18:12:36 27° 113° (ESE) 18:16:17 435.215
PHONESAT 2.4 01 Mar 18:14:53 18:17:33 20° 148° (SSE) 18:20:16 2401.200-2431.200
BEESAT 2 01 Mar 18:18:10 18:22:16 84° 300° (WNW) 18:26:28 435.950
VERMONT LUNAR 01 Mar 18:19:30 18:22:47 38° 154° (SSE) 18:26:04 437.305
O/OREOS (USA 219) 01 Mar 18:41:34 18:43:10 12° 52° (NE) 18:45:01 437.305
AIST 1 01 Mar 18:50:54 18:55:14 55° 80° (E) 18:59:33
Cubesat XI-IV 01 Mar 18:59:43 19:04:39 36° 263° (W) 19:09:33 437.490
STRAND 1 01 Mar 19:04:27 19:09:02 33° 96° (E) 19:13:40 437.568
PRISM 01 Mar 19:07:56 19:12:09 63° 101° (E) 19:16:20 437.425
HO-68 01 Mar 19:08:11 19:12:49 20° 59° (ENE) 19:17:44 435.675
CUTE-I 01 Mar 19:09:24 19:14:05 30° 265° (W) 19:18:44 437.470
CUBESAT XI-V 01 Mar 19:28:28 19:33:13 80° 283° (WNW) 19:37:54 437.345
BEESAT 3 01 Mar 19:34:24 19:36:44 14° 316° (NW) 19:38:59 437.485
CUTE 1.7 + AOD 2 01 Mar 19:36:56 19:38:38 13° 66° (ENE) 19:40:33 437.475
AIST 2 01 Mar 19:47:28 19:51:10 28° 310° (NW) 19:54:53 435.215
PHONESAT 2.4 01 Mar 19:52:03 19:55:42 77° 162° (SSE) 19:59:21 2401.200-2431.200
VERMONT LUNAR 01 Mar 19:57:07 20:00:37 70° 350° (N) 20:04:07 437.305
BEESAT 2 01 Mar 20:00:31 20:01:12 10° 320° (NW) 20:01:43 435.950
BRITE-PL 01 Mar 20:03:44 20:09:12 51° 74° (ENE) 20:14:32 437.365/2234.400
GOMX 1 01 Mar 20:15:02 20:20:08 44° 73° (ENE) 20:25:05 467.674
O/OREOS (USA 219) 01 Mar 20:18:39 20:23:15 74° 251° (WSW) 20:27:47 437.305
AAUSAT CUBESAT 2 01 Mar 20:23:27 20:26:47 25° 71° (ENE) 20:30:13 437.432
COMPASS 1 01 Mar 20:24:49 20:28:24 29° 72° (ENE) 20:32:03 437.405
AIST 1 01 Mar 20:31:03 20:32:27 11° 274° (W) 20:33:35
STRAND 1 01 Mar 20:43:47 20:48:09 28° 292° (WNW) 20:52:25 437.568
PRISM 01 Mar 20:45:55 20:47:11 11° 295° (WNW) 20:48:12 437.425
SEEDS 01 Mar 20:49:49 20:53:59 73° 75° (ENE) 20:58:10 437.485
CANX-2 01 Mar 20:51:09 20:55:22 81° 260° (W) 20:59:36 2200.000
FUNcube-1 01 Mar 20:51:11 20:52:55 12° 66° (ENE) 20:54:50 145.935
ZACube-1 01 Mar 20:51:49 20:53:43 13° 67° (ENE) 20:55:48 437.345
HO-68 01 Mar 20:52:42 20:59:51 80° 255° (WSW) 21:07:03 435.675
DOVE 4 01 Mar 20:55:18 21:00:31 76° 76° (ENE) 21:05:30 437.250
UKube-1 01 Mar 21:01:15 21:03:50 16° 67° (ENE) 21:06:36 .
UWE-3 01 Mar 21:06:39 21:10:09 23° 70° (ENE) 21:13:40 435.000/436.395/437.385
CUTE 1.7 + AOD 2 01 Mar 21:10:03 21:14:11 53° 261° (W) 21:18:19 437.475
CINEMA 3 01 Mar 21:12:15 21:17:00 61° 76° (ENE) 21:21:37 145.822/145.860
PCSat 01 Mar 21:21:37 21:26:59 76° 116° (ESE) 21:32:26 145.827
PHONESAT 2.4 01 Mar 21:30:40 21:34:16 60° 359° (N) 21:37:52 2401.200-2431.200
VERMONT LUNAR 01 Mar 21:35:15 21:38:44 64° 7° (N) 21:42:11 437.305
DELFI C3 01 Mar 21:37:14 21:41:13 66° 76° (ENE) 21:45:14 145.870
CUBEBUG 2 01 Mar 21:40:39 21:45:11 69° 76° (ENE) 21:49:35 437.445
Oscar 11 01 Mar 21:42:04 21:46:22 84° 258° (WSW) 21:50:42 145.826/435.025
BRITE-PL 01 Mar 21:43:42 21:47:58 21° 269° (W) 21:51:58 437.365/2234.400
GOMX 1 01 Mar 21:54:12 21:58:25 22° 267° (W) 22:02:23 467.674
AAUSAT CUBESAT 2 01 Mar 21:59:00 22:02:24 24° 266° (W) 22:05:45 437.432
COMPASS 1 01 Mar 22:01:03 22:04:11 20° 267° (W) 22:07:13 437.405
GONETS M04 01 Mar 22:01:47 22:09:55 48° 90° (E) 22:18:10
AISAT 01 Mar 22:02:56 22:06:54 32° 71° (ENE) 22:10:57 437.250
DX 1 01 Mar 22:04:14 22:08:38 85° 76° (ENE) 22:13:04 434.975-435.025
CUBEBUG 1 01 Mar 22:11:39 22:14:23 17° 67° (ENE) 22:17:17 437.445
VELOX 1 01 Mar 22:12:47 22:16:56 39° 72° (ENE) 22:21:09 145.980
RS-15 01 Mar 22:19:49 22:27:11 23° 103° (ESE) 22:35:11 29.354- 29.394
FUNcube-1 01 Mar 22:24:32 22:28:52 57° 260° (W) 22:33:08 145.935
ESTCUBE 1 01 Mar 22:24:46 22:28:26 25° 69° (ENE) 22:32:12 437.505/2401.250
ZACube-1 01 Mar 22:25:23 22:29:43 54° 260° (W) 22:33:59 437.345
UKube-1 01 Mar 22:35:31 22:39:41 43° 261° (W) 22:43:52 .
DOVE 4 01 Mar 22:37:01 22:38:49 11° 272° (W) 22:40:14 437.250
HUMSAT D 01 Mar 22:37:10 22:41:23 78° 258° (WSW) 22:45:34 437.325/437.525
UNISAT 6 01 Mar 22:39:24 22:42:52 24° 95° (E) 22:46:26 437.425
NANOSAT C BR1 01 Mar 22:40:48 22:42:36 13° 90° (E) 22:44:38 145.865
UWE-3 01 Mar 22:42:40 22:46:36 29° 264° (W) 22:50:24 435.000/436.395/437.385
50 SAT 01 Mar 22:45:31 22:49:31 88° 254° (WSW) 22:53:31 437.505
HO-68 01 Mar 22:46:15 22:48:50 12° 274° (W) 22:50:47 435.675
SPROUT 01 Mar 22:50:44 22:50:57 10° 65° (ENE) 22:51:26 437.525
CINEMA 3 01 Mar 22:52:25 22:54:38 13° 270° (W) 22:56:32 145.822/145.860
TISAT 1 01 Mar 22:57:31 22:58:39 11° 65° (ENE) 23:00:03 437.305
TIGRISAT 01 Mar 23:04:33 23:08:39 45° 99° (E) 23:12:49 435.000
CUSAT 1 01 Mar 23:06:52 23:08:00 11° 92° (E) 23:09:32 437.405
PCSat 01 Mar 23:07:30 23:11:05 17° 315° (NW) 23:14:31 145.827
PHONESAT 2.4 01 Mar 23:09:14 23:12:53 88° 205° (SSW) 23:16:30 2401.200-2431.200
QB50P1 01 Mar 23:11:49 23:15:32 30° 96° (E) 23:19:16 145.935-145.965
VERMONT LUNAR 01 Mar 23:13:15 23:16:38 49° 203° (SSW) 23:20:00 437.305
QB50P2 01 Mar 23:15:11 23:19:01 33° 97° (E) 23:22:52 145.880/145.840
ANTELSAT 01 Mar 23:17:25 23:21:42 68° 101° (E) 23:26:02 437.575/2403.000
BUGSAT 1 01 Mar 23:27:43 23:31:29 33° 97° (E) 23:35:13 437.445
DUCHIFAT 1 01 Mar 23:31:02 23:35:08 50° 99° (E) 23:39:13 145.980
AISAT 01 Mar 23:40:03 23:43:36 22° 266° (W) 23:47:02 437.250
CUBEBUG 1 01 Mar 23:46:12 23:50:27 43° 262° (W) 23:54:43 437.445
POLYITAN 1 01 Mar 23:49:56 23:54:11 88° 106° (ESE) 23:58:24 437.675
VELOX 1 01 Mar 23:50:38 23:53:43 18° 268° (W) 23:56:40 145.980
POPSAT HIP 1 01 Mar 23:50:59 23:55:15 89° 127° (SE) 23:59:27 437.405
GONETS M04 01 Mar 23:59:15 00:07:03 35° 289° (WNW) 00:14:42
ESTCUBE 1 02 Mar 00:01:20 00:05:14 28° 265° (W) 00:09:07 437.505/2401.250
DANDE 02 Mar 00:08:36 00:15:05 38° 96° (E) 00:20:15 436.750
NANOSAT C BR1 02 Mar 00:14:45 00:18:49 47° 287° (WNW) 00:22:51 145.865
UNISAT 6 02 Mar 00:16:02 00:19:39 26° 290° (WNW) 00:23:14 437.425
ITUPSAT 1 02 Mar 00:16:47 00:19:12 14° 65° (ENE) 00:21:50 437.325
SPROUT 02 Mar 00:22:11 00:26:32 72° 259° (WSW) 00:30:53 437.525
RS-15 02 Mar 00:27:27 00:38:24 84° 302° (WNW) 00:49:30 29.354- 29.394
TISAT 1 02 Mar 00:29:45 00:34:01 64° 260° (W) 00:38:17 437.305
TIGRISAT 02 Mar 00:42:39 00:45:07 15° 293° (WNW) 00:47:24 435.000
CUSAT 1 02 Mar 00:44:07 00:50:52 88° 277° (W) 00:55:56 437.405
QB50P1 02 Mar 00:48:04 00:51:16 21° 291° (WNW) 00:54:23 145.935-145.965
PHONESAT 2.4 02 Mar 00:48:07 00:51:05 24° 211° (SSW) 00:54:01 2401.200-2431.200
QB50P2 02 Mar 00:51:42 00:54:45 19° 292° (WNW) 00:57:39 145.880/145.840
VERMONT LUNAR 02 Mar 00:53:18 00:54:05 10° 216° (SW) 00:54:44 437.305
ANTELSAT 02 Mar 00:57:13 00:58:03 10° 295° (WNW) 00:58:38 437.575/2403.000
BUGSAT 1 02 Mar 01:03:49 01:06:45 18° 292° (WNW) 01:09:33 437.445
DUCHIFAT 1 02 Mar 01:08:31 01:10:36 13° 294° (WNW) 01:12:30 145.980
SWISSCUBE 02 Mar 01:16:20 01:21:02 64° 74° (ENE) 01:25:47 437.505
BEESAT 02 Mar 01:25:06 01:29:51 73° 75° (ENE) 01:34:39 436.000
ITUPSAT 1 02 Mar 01:51:56 01:56:39 60° 259° (W) 02:01:25 437.325
DANDE 02 Mar 01:52:19 01:58:25 30° 284° (WNW) 02:03:11 436.750
KKS-1 02 Mar 01:52:27 01:56:06 26° 69° (ENE) 01:59:50 437.445
STARS 02 Mar 02:01:23 02:04:37 21° 68° (ENE) 02:07:59 437.465
YUBILEINY 02 Mar 02:07:14 02:11:18 14° 59° (ENE) 02:16:02 435.215
SO-50 02 Mar 02:09:05 02:13:33 58° 118° (ESE) 02:18:13 436.795
BEESAT 3 02 Mar 02:15:13 02:18:38 25° 49° (NE) 02:22:04 437.485
ITAMSAT 1 02 Mar 02:18:01 02:22:17 26° 94° (E) 02:26:39 435.822/435.867
Oscar 19 02 Mar 02:21:05 02:26:14 88° 102° (ESE) 02:31:23 437.125/150
AIST 2 02 Mar 02:32:50 02:35:13 15° 43° (NE) 02:37:42 435.215
CUSAT 1 02 Mar 02:32:57 02:34:00 10° 290° (WNW) 02:34:35 437.405
BEESAT 2 02 Mar 02:39:26 02:43:19 37° 53° (NE) 02:47:09 435.950
RS-15 02 Mar 02:43:47 02:52:47 27° 329° (NNW) 03:01:42 29.354- 29.394
SWISSCUBE 02 Mar 02:57:27 02:59:26 12° 271° (W) 03:01:09 437.505
BEESAT 02 Mar 03:07:26 03:08:20 10° 272° (W) 03:08:54 436.000
Gurwin Techsat 1B 02 Mar 03:23:55 03:29:16 85° 101° (E) 03:34:36 435.225
KKS-1 02 Mar 03:28:49 03:32:41 27° 265° (W) 03:36:29 437.445
STARS 02 Mar 03:36:52 03:40:55 34° 263° (W) 03:44:56 437.465
HORYU 2 02 Mar 03:47:27 03:51:34 37° 98° (E) 03:55:43 437.375
SO-50 02 Mar 03:51:14 03:54:33 18° 317° (NW) 03:57:48 436.795
BEESAT 3 02 Mar 03:53:09 03:56:44 28° 246° (WSW) 04:00:13 437.485
ITAMSAT 1 02 Mar 03:57:08 04:01:53 35° 290° (WNW) 04:06:33 435.822/435.867
YUBILEINY 02 Mar 04:01:07 04:10:00 77° 81° (E) 04:18:50 435.215
Oscar 19 02 Mar 04:03:27 04:04:58 11° 298° (WNW) 04:06:10 437.125/150
AIST 2 02 Mar 04:10:04 04:14:17 63° 242° (WSW) 04:18:25 435.215
JAS-2 02 Mar 04:14:09 04:20:35 31° 93° (E) 04:27:25 435.910
BEESAT 2 02 Mar 04:18:18 04:21:15 18° 249° (WSW) 04:24:03 435.950
AO-7 02 Mar 04:27:59 04:35:55 49° 100° (E) 04:43:53 29.400- 29.500
M-CUBED/EXP-1 PRIME 02 Mar 04:28:08 04:31:20 48° 255° (WSW) 04:34:37 437.505
AUBIESAT-1 02 Mar 04:30:45 04:33:58 52° 255° (WSW) 04:37:17 437.475
MOZHAYETS 4 02 Mar 04:33:27 04:37:57 64° 75° (ENE) 04:42:30
JUGNU 02 Mar 04:40:25 04:42:43 12° 180° (S) 04:45:01 437.505
SRMSAT 02 Mar 04:42:29 04:42:59 10° 171° (S) 04:43:33 437.500
RS-15 02 Mar 05:04:13 05:10:38 16° 4° (N) 05:17:14 29.354- 29.394
Gurwin Techsat 1B 02 Mar 05:06:28 05:08:37 12° 298° (WNW) 05:10:28 435.225
HORYU 2 02 Mar 05:24:48 05:28:01 19° 292° (WNW) 05:31:05 437.375
Cubesat XI-IV 02 Mar 05:41:02 05:42:32 11° 87° (E) 05:44:25 437.490
CUTE-I 02 Mar 05:49:17 05:51:54 14° 89° (E) 05:54:50 437.470
PRISM 02 Mar 05:57:03 06:00:51 37° 72° (ENE) 06:04:44 437.425
JAS-2 02 Mar 05:58:37 06:05:49 54° 289° (WNW) 06:13:21 435.910
YUBILEINY 02 Mar 05:59:46 06:05:59 21° 278° (W) 06:11:43 435.215
PCSat 02 Mar 06:11:09 06:16:19 43° 56° (NE) 06:21:28 145.827
MOZHAYETS 4 02 Mar 06:14:19 06:15:43 11° 272° (W) 06:16:48
STRAND 1 02 Mar 06:18:48 06:23:33 41° 71° (ENE) 06:28:25 437.568
AO-7 02 Mar 06:21:08 06:28:34 37° 298° (WNW) 06:35:49 29.400- 29.500
SRMSAT 02 Mar 06:28:57 06:31:17 12° 181° (S) 06:33:37 437.500
CUBESAT XI-V 02 Mar 06:30:08 06:34:49 83° 77° (ENE) 06:39:34 437.345
Cubesat XI-IV 02 Mar 07:18:00 07:23:23 79° 286° (WNW) 07:28:45 437.490
RS-15 02 Mar 07:18:21 07:28:06 33° 37° (NE) 07:38:28 29.354- 29.394
AIST 1 02 Mar 07:19:00 07:22:55 35° 92° (E) 07:26:56
CUTE-I 02 Mar 07:27:14 07:32:34 66° 287° (WNW) 07:37:51 437.470
PRISM 02 Mar 07:33:55 07:36:34 16° 268° (W) 07:39:03 437.425
PCSat 02 Mar 07:55:09 07:59:31 24° 252° (WSW) 08:03:43 145.827
STRAND 1 02 Mar 07:58:58 08:02:58 22° 267° (W) 08:06:50 437.568
BRITE-PL 02 Mar 08:12:34 08:14:58 15° 89° (E) 08:17:29 437.365/2234.400
GONETS M04 02 Mar 08:14:29 08:20:40 22° 64° (ENE) 08:27:15
GOMX 1 02 Mar 08:21:37 08:22:39 11° 87° (E) 08:23:57 467.674
HO-68 02 Mar 08:23:17 08:28:22 21° 91° (E) 08:33:44 435.675
ISS 02 Mar 08:26:05 08:27:42 13° 130° (SE) 08:29:26 145.825
SEEDS 02 Mar 08:37:29 08:39:33 14° 90° (E) 08:41:49 437.485
CANX-2 02 Mar 08:38:57 08:41:58 19° 93° (E) 08:45:06 2200.000
O/OREOS (USA 219) 02 Mar 08:52:07 08:54:40 15° 101° (E) 08:57:25 437.305
CUTE 1.7 + AOD 2 02 Mar 08:57:10 09:00:49 28° 95° (E) 09:04:31 437.475
DOVE 4 02 Mar 08:57:34 09:00:38 20° 92° (E) 09:03:43 437.250
AIST 1 02 Mar 08:57:45 09:00:46 18° 289° (WNW) 09:03:40
CINEMA 3 02 Mar 09:10:38 09:12:42 14° 90° (E) 09:14:58 145.822/145.860
DELFI C3 02 Mar 09:21:41 09:22:09 10° 89° (E) 09:22:54 145.870
